Location: Bambrugge
(50.9212°N, 3.9299°E)
Time: 04:15:23
(UTC+00:00)

SL-16 R/B - Pass Details

Date: 08 August 2024
Orbit: 842 x 845 km, 71.0° (Epoch: 16 September)

Event Time Altitude Azimuth Distance (km) Brightness Sun altitude
Exits shadow 01:25:45 29° 244° (WSW) 1,502 3.1 -19.8°
Maximum altitude 01:28:26 53° 306° (NW) 1,035 2.7 -19.7°
Drops below altitude 10° 01:34:00 10° 24° (NNE) 2,476 5.9 -19.3°
Sets 01:36:32 0° 29° (NNE) 3,415 7.0 -19.1°
